Stations météo

Publicité
Le Havre/Octeville, France (7046): Température de l'air & dewpoint: 13.09.2018 16:00:00 - 19.09.2018 16:00:00 (CEST)Le Havre/Octeville, France (7046): Vitesse du vent & gusts: 13.09.2018 16:00:00 - 19.09.2018 16:00:00 (CEST)Le Havre/Octeville, France (7046): Direction du vent: 13.09.2018 16:00:00 - 19.09.2018 16:00:00 (CEST)Le Havre/Octeville, France (7046): reduced air pressure: 13.09.2018 16:00:00 - 19.09.2018 16:00:00 (CEST)Le Havre/Octeville, France (7046): visibility: 13.09.2018 16:00:00 - 19.09.2018 16:00:00 (CEST)Le Havre/Octeville, France (7046): Quantités de précipitations: 13.09.2018 16:00:00 - 19.09.2018 16:00:00 (CEST)
Date & Time tt [°C] td [°C] ff [km/h] ff [knt] fx [km/h] fx [knt] dd ppp [hPa] vv [km] rr [mm]
19.09.2018 16:00:00 22,0 14,1 21 11 36 19 SSW 1017,8 41 0,0
19.09.2018 15:00:00 21,6 14,0 23 12 40 22 SSW 1017,8 21 0,0
19.09.2018 14:00:00 22,1 14,0 26 14 40 22 SSW 1017,6 22 0,0
19.09.2018 13:00:00 21,4 14,5 24 13 37 20 SSW 1017,7 22 0,0
19.09.2018 12:00:00 20,5 14,4 22 12 37 20 SSW 1017,9 20 0,0
19.09.2018 11:00:00 18,9 14,4 23 12 37 20 S 1017,8 18 0,0
19.09.2018 10:00:00 17,9 14,0 22 12 41 22 SSW 1017,3 17 0,0
19.09.2018 09:00:00 17,1 14,6 22 12 33 18 S 1016,8 16 0,0
19.09.2018 08:00:00 16,4 14,4 22 12 39 21 S 1016,3 14 0,0
19.09.2018 07:00:00 16,7 14,3 21 11 35 19 S 1016,2 13 0,0
19.09.2018 06:00:00 16,9 14,2 20 11 36 19 SSW 1016,0 14 0,0
19.09.2018 05:00:00 17,0 14,1 19 11 32 17 SSW 1016,1 14 0,0
19.09.2018 04:00:00 17,0 13,7 17 9 27 15 SSW 1016,2 16 0,0
19.09.2018 03:00:00 17,2 13,5 16 8 27 15 SSW 1016,5 18 0,0
19.09.2018 02:00:00 17,9 13,4 16 9 23 13 SSW 1016,0 19 0,0
19.09.2018 01:00:00 18,5 14,2 18 10 27 15 SSW 1015,9 20 0,0
19.09.2018 00:00:00 18,1 14,0 9 5 15 8 SSW 1015,7 19 0,0
18.09.2018 23:00:00 17,7 13,2 4 2 10 5 SSE 1015,8 25 0,0
18.09.2018 22:00:00 17,4 13,5 5 3 9 5 E 1015,5 19 0,0
18.09.2018 21:00:00 17,5 13,4 4 2 7 4 ENE 1015,4 20 0,0
18.09.2018 20:00:00 17,9 13,6 5 3 10 6 NNE 1015,1 19 0,0
18.09.2018 19:00:00 19,7 14,1 8 5 12 6 N 1014,9 19 0,0
18.09.2018 18:00:00 20,9 13,3 10 5 15 8 NW 1014,9 20 0,0
18.09.2018 17:00:00 22,1 13,2 9 5 16 9 WSW 1014,9 19 0,0
18.09.2018 16:00:00 20,8 14,0 13 7 25 13 W 1015,2 19 0,0
18.09.2018 15:00:00 20,9 14,5 15 8 31 17 W 1015,4 19 0,0
18.09.2018 14:00:00 19,7 14,1 15 8 30 16 SW 1015,2 19 0,0
18.09.2018 13:00:00 20,0 14,1 20 11 35 19 SSW 1014,7 20 0,0
18.09.2018 12:00:00 20,2 13,6 23 13 45 24 SW 1014,0 19 0,0
18.09.2018 11:00:00 19,2 13,6 24 13 44 24 SW 1013,3 20 0,0
18.09.2018 10:00:00 18,8 14,3 21 12 41 22 SSW 1012,6 18 0,0
18.09.2018 09:00:00 18,4 14,7 20 11 35 19 SSW 1012,0 20 0,0
18.09.2018 08:00:00 18,3 15,0 19 11 37 20 SSW 1011,3 25 0,0
18.09.2018 07:00:00 18,0 15,3 22 12 34 18 SSW 1010,8 24 0,0
18.09.2018 06:00:00 17,4 14,9 16 9 30 16 S 1010,7 18 0,0
18.09.2018 05:00:00 17,9 14,2 22 12 38 21 SW 1011,0 29 0,0
18.09.2018 04:00:00 18,8 13,9 19 11 36 20 SSW 1010,2 30 0,0
18.09.2018 03:00:00 20,2 13,4 20 11 35 19 S 1010,0 38 0,0
18.09.2018 02:00:00 21,5 12,3 16 9 25 13 S 1009,9 46 0,0
18.09.2018 01:00:00 22,9 11,9 15 8 28 15 S 1010,0 51 0,0
18.09.2018 00:00:00 21,7 10,2 9 5 23 12 SSE 1010,1 52 0,0
17.09.2018 23:00:00 22,7 9,8 15 8 22 12 SE 1010,1 58 0,0
17.09.2018 22:00:00 23,4 10,1 14 8 20 11 SE 1010,5 54 0,0
17.09.2018 21:00:00 24,5 9,6 11 6 20 11 SE 1010,8 58 0,0
17.09.2018 20:00:00 25,6 8,6 11 6 22 12 SE 1011,0 60 0,0
17.09.2018 19:00:00 26,8 7,3 14 7 30 16 SE 1011,5 60 0,0
17.09.2018 18:00:00 27,2 7,6 17 9 30 16 SSE 1012,3 59 0,0
17.09.2018 17:00:00 26,8 6,8 15 8 29 16 SSE 1013,0 50 0,0
17.09.2018 16:00:00 26,5 6,5 18 10 27 15 SSE 1014,1 45 0,0
17.09.2018 15:00:00 25,6 7,7 13 7 23 13 S 1015,0 50 0,0
17.09.2018 14:00:00 24,3 9,1 13 7 24 13 S 1016,0 38 0,0
17.09.2018 13:00:00 23,2 9,2 15 8 27 14 SSE 1016,4 32 0,0
17.09.2018 12:00:00 21,4 9,3 14 8 22 12 SSE 1017,3 31 0,0
17.09.2018 11:00:00 19,7 8,1 13 7 19 10 SE 1018,0 26 0,0
17.09.2018 10:00:00 16,6 10,7 7 4 9 5 E 1018,4 19 0,0
17.09.2018 09:00:00 14,0 9,2 6 4 9 5 SE 1018,8 34 0,0
17.09.2018 08:00:00 11,0 8,2 3 1 11 6 E 1018,8 19 0,0
17.09.2018 07:00:00 11,3 8,9 6 3 10 5 ESE 1018,8 37 0,0
17.09.2018 06:00:00 11,7 9,1 6 3 8 5 ESE 1018,8 35 0,0
17.09.2018 05:00:00 12,1 9,3 6 3 8 5 ESE 1019,0 38 0,0
17.09.2018 04:00:00 12,0 9,2 4 2 6 3 E 1019,5 40 0,0
17.09.2018 03:00:00 12,2 9,4 2 1 5 3 N 1020,2 42 0,0
17.09.2018 02:00:00 13,1 9,2 5 3 7 4 E 1020,2 52 0,0
17.09.2018 01:00:00 13,8 9,6 5 3 6 4 E 1020,2 50 0,0
17.09.2018 00:00:00 13,6 9,0 5 3 9 5 ESE 1020,2 37 0,0
16.09.2018 23:00:00 15,5 9,2 6 3 10 5 SE 1020,2 60 0,0
16.09.2018 22:00:00 15,0 8,7 4 2 9 5 NNW 1020,8 60 0,0
16.09.2018 21:00:00 16,0 9,2 9 5 13 7 NNW 1020,5 60 0,0
16.09.2018 20:00:00 20,2 9,1 5 3 5 3 W 1020,0 60 0,0
16.09.2018 19:00:00 20,8 9,7 0 0 11 6 N 1019,5 60 0,0
16.09.2018 18:00:00 22,5 8,9 2 1 14 7 NW 1019,3 52 0,0
16.09.2018 17:00:00 21,1 8,7 10 6 21 11 NW 1019,6 60 0,0
16.09.2018 16:00:00 22,4 8,1 14 8 23 12 SW 1019,8 60 0,0
16.09.2018 15:00:00 21,7 8,2 11 6 21 11 SSW 1020,2 60 0,0
16.09.2018 14:00:00 21,5 7,7 14 7 26 14 SSW 1020,8 60 0,0
16.09.2018 13:00:00 21,0 8,9 13 7 20 11 S 1021,2 60 0,0
16.09.2018 12:00:00 19,4 9,6 9 5 21 11 S 1021,5 60 0,0
16.09.2018 11:00:00 18,3 9,1 13 7 19 11 SSE 1021,3 26 0,0
16.09.2018 10:00:00 16,7 8,9 11 6 18 10 SE 1021,1 20 0,0
16.09.2018 09:00:00 14,7 8,9 7 4 15 8 ESE 1021,3 17 0,0
16.09.2018 08:00:00 13,0 8,7 9 5 15 8 SE 1021,5 18 0,0
16.09.2018 07:00:00 13,0 8,9 9 5 15 8 ESE 1021,5 20 0,0
16.09.2018 06:00:00 13,0 9,3 8 4 11 6 SE 1021,7 13 0,0
16.09.2018 05:00:00 12,0 9,9 8 5 14 8 ESE 1021,7 16 0,0
16.09.2018 04:00:00 13,5 10,8 10 6 21 11 ESE 1022,3 16 0,0
16.09.2018 03:00:00 13,1 11,3 11 6 17 9 ESE 1022,7 9 0,0
16.09.2018 02:00:00 12,4 10,8 11 6 15 8 E 1023,1 12 0,0
16.09.2018 01:00:00 11,8 10,0 11 6 13 7 E 1024,0 20 0,0
16.09.2018 00:00:00 12,4 10,3 8 5 12 6 E 1024,4 20 0,0
15.09.2018 23:00:00 13,3 10,3 8 5 14 7 E 1024,8 34 0,0
15.09.2018 22:00:00 13,8 10,4 7 4 11 6 E 1024,9 38 0,0
15.09.2018 21:00:00 14,6 10,0 7 4 9 5 ENE 1024,6 49 0,0
15.09.2018 20:00:00 15,6 9,5 6 3 15 8 NE 1024,6 60 0,0
15.09.2018 19:00:00 17,5 9,1 7 4 12 7 N 1024,5 60 0,0
15.09.2018 18:00:00 17,7 9,8 9 5 17 9 N 1024,9 44 0,0
15.09.2018 17:00:00 18,0 10,8 13 7 18 10 WNW 1025,3 60 0,0
15.09.2018 16:00:00 18,1 11,9 9 5 17 9 W 1025,6 20 0,0
15.09.2018 15:00:00 18,1 12,1 11 6 19 11 W 1025,9 20 0,0
15.09.2018 14:00:00 17,9 11,9 12 7 20 11 W 1026,2 55 0,0
15.09.2018 13:00:00 17,3 13,0 13 7 23 12 W 1026,6 20 0,0
15.09.2018 12:00:00 16,6 13,3 17 9 26 14 WSW 1026,7 43 0,0
15.09.2018 11:00:00 16,2 14,6 18 10 25 14 SW 1026,4 39 0,0
15.09.2018 10:00:00 15,0 13,7 17 9 23 13 SW 1026,0 20 0,2
15.09.2018 09:00:00 15,9 12,3 11 6 19 11 W 1025,6 55 0,0
15.09.2018 08:00:00 15,6 11,6 14 7 21 11 WNW 1025,2 60 0,0
15.09.2018 07:00:00 14,9 13,4 10 6 24 13 SW 1024,8 60 0,0
15.09.2018 06:00:00 15,3 13,0 17 9 26 14 WSW 1024,4 18 0,0
15.09.2018 05:00:00 15,5 12,6 19 10 27 15 W 1024,3 47 0,2
15.09.2018 04:00:00 15,6 12,5 17 9 30 16 W 1024,5 12 0,4
15.09.2018 03:00:00 15,7 12,1 15 8 23 13 W 1024,6 55 0,0
15.09.2018 02:00:00 15,4 11,6 15 8 31 17 W 1024,7 57 0,0
15.09.2018 01:00:00 15,4 11,2 16 9 37 20 W 1024,6 60 0,0
15.09.2018 00:00:00 15,5 10,5 21 12 35 19 W 1024,3 60 0,0
14.09.2018 23:00:00 15,5 9,4 22 12 33 18 W 1024,1 60 0,0
14.09.2018 22:00:00 15,6 9,3 18 10 33 18 W 1023,9 60 0,0
14.09.2018 21:00:00 15,6 9,5 17 9 38 20 W 1023,7 60 0,0
14.09.2018 20:00:00 15,6 10,4 18 10 36 20 W 1023,4 60 0,0
14.09.2018 19:00:00 16,4 8,6 16 9 34 18 W 1023,2 60 0,0
14.09.2018 18:00:00 16,6 10,0 19 10 33 18 W 1023,2 60 0,0
14.09.2018 17:00:00 14,2 10,8 26 14 42 23 W 1023,4 10 0,0
14.09.2018 16:00:00 16,8 8,7 18 10 35 19 W 1023,5 56 0,0
14.09.2018 15:00:00 17,1 8,5 16 8 32 17 W 1023,2 60 0,0
14.09.2018 14:00:00 17,6 8,7 18 10 34 18 W 1023,3 60 0,0
14.09.2018 13:00:00 17,0 8,9 16 9 29 16 W 1023,3 60 0,0
14.09.2018 12:00:00 16,4 8,6 19 10 29 16 W 1023,4 60 0,0
14.09.2018 11:00:00 15,3 11,1 13 7 27 14 WSW 1022,9 51 0,0
14.09.2018 10:00:00 14,7 10,9 17 9 28 15 SSW 1022,8 20 0,0
14.09.2018 09:00:00 13,4 11,3 14 7 23 13 S 1022,7 19 0,0
14.09.2018 08:00:00 13,0 11,2 11 6 21 11 S 1022,5 18 0,0
14.09.2018 07:00:00 13,2 11,9 9 5 19 10 S 1022,4 12 0,0
14.09.2018 06:00:00 12,8 11,2 8 5 16 9 SSE 1022,4 11 0,0
14.09.2018 05:00:00 13,3 11,5 10 5 14 7 S 1022,8 21 0,0
14.09.2018 04:00:00 11,7 8,4 4 2 11 6 SSE 1022,9 55 0,0
14.09.2018 03:00:00 13,8 8,2 8 4 14 7 WNW 1023,2 60 0,0
14.09.2018 02:00:00 13,0 8,1 9 5 14 8 NW 1023,4 10 0,0
14.09.2018 01:00:00 13,4 8,2 9 5 18 10 NW 1023,6 60 0,0
14.09.2018 00:00:00 13,7 8,5 12 6 19 11 NW 1023,8 60 0,0
13.09.2018 23:00:00 13,3 7,5 10 6 16 9 NW 1023,7 60 0,0
13.09.2018 22:00:00 12,9 7,8 10 6 16 9 NW 1023,6 60 0,0
13.09.2018 21:00:00 13,4 7,2 12 7 21 12 NNW 1023,3 60 0,0
13.09.2018 20:00:00 14,3 7,6 12 7 23 12 NNW 1022,9 60 0,0
13.09.2018 19:00:00 15,7 8,4 16 9 26 14 NNW 1022,7 39 0,0
13.09.2018 18:00:00 16,3 8,8 18 10 25 14 NNW 1022,8 59 0,0
13.09.2018 17:00:00 17,3 11,1 17 9 29 16 NNW 1023,0 58 0,0
13.09.2018 16:00:00 16,8 11,1 18 10 32 17 NNW 1023,2 52 0,0

tt = Température de l'air
td = dewpoint
ff = Vitesse du vent
fx = gusts
dd = Direction du vent
ppp = reduced air pressure
vv = visibility
rr = Quantités de précipitations

stations d'obs. à proximité